EW1587 Weather Reports


time (UTC)temp
F
wind
direction
speed
knots
gust
knots
rain 1hr
in
rain 24hr
in
rain mn
in
humidity
%
barometer
mb
20260502194544 63 276 8.7 16.5 0.00 0.00 0.00 35 1013.9
20260502194045 63 281 7.8 15.6 0.00 0.00 0.00 35 1014.0
20260502193543 63 277 6.1 20.9 0.00 0.00 0.00 36 1014.2
20260502193049 62 292 11.3 20.9 0.00 0.00 0.00 35 1014.2
20260502192543 63 295 10.4 18.2 0.00 0.00 0.00 35 1014.3
20260502192040 63 257 10.4 15.6 0.00 0.00 0.00 36 1014.2
20260502191544 62 278 6.1 18.2 0.00 0.00 0.00 37 1014.5
20260502191037 62 288 10.4 18.2 0.00 0.00 0.00 36 1014.6
20260502190537 61 284 9.6 15.6 0.00 0.00 0.00 36 1014.7
20260502190035 61 278 8.7 15.6 0.00 0.00 0.00 37 1014.9
20260502185533 61 258 7.8 13.9 0.00 0.00 0.00 39 1014.9
20260502185032 60 274 7.8 14.8 0.00 0.00 0.00 37 1015.1
20260502184535 60 273 8.7 14.8 0.00 0.00 0.00 37 1015.2
20260502184030 60 288 9.6 20.9 0.00 0.00 0.00 38 1015.3
20260502183530 60 291 13.9 20.9 0.00 0.00 0.00 37 1015.4
20260502183030 60 248 8.7 16.5 0.00 0.00 0.00 36 1015.5
20260502182530 60 276 7.8 16.5 0.00 0.00 0.00 37 1015.6
20260502182028 60 267 7.0 13.9 0.00 0.00 0.00 36 1015.7
20260502181529 60 312 6.1 14.8 0.00 0.00 0.00 37 1015.7
20260502181026 59 280 5.2 9.6 0.00 0.00 0.00 37 1015.9
20260502180524 59 249 5.2 12.2 0.00 0.00 0.00 38 1016.0
20260502170509 56 264 6.1 13.9 0.00 0.00 0.00 39 1017.2
20260502164004 55 270 8.7 12.2 0.00 0.00 0.00 40 1017.5
20260502163503 55 290 6.1 13.0 0.00 0.00 0.00 39 1017.7
20260502163001 55 288 7.0 12.2 0.00 0.00 0.00 40 1017.7
20260502162601 54 291 5.2 12.2 0.00 0.00 0.00 42 1017.7
20260502162059 54 274 6.1 13.9 0.00 0.00 0.00 41 1017.9
20260502161600 53 271 8.7 13.9 0.00 0.00 0.00 42 1017.9
20260502161059 53 279 7.0 15.6 0.00 0.00 0.00 41 1018.0
20260502160558 53 260 7.8 15.6 0.00 0.00 0.00 42 1018.1
20260502152047 51 290 9.6 13.9 0.00 0.00 0.00 45 1018.7
20260502151551 51 283 6.1 13.9 0.00 0.00 0.00 47 1018.7
20260502151048 51 292 7.8 14.8 0.00 0.00 0.00 44 1018.8
20260502150544 51 278 10.4 14.8 0.00 0.00 0.00 46 1018.9
20260502130521 42 290 7.0 10.4 0.00 0.00 0.00 66 1019.6
20260502123518 41 288 3.5 7.0 0.00 0.00 0.00 69 1019.7
20260502123018 41 275 2.6 5.2 0.00 0.00 0.00 70 1019.6
20260502122518 40 302 2.6 5.2 0.00 0.00 0.00 70 1019.6
20260502122018 40 288 3.5 6.1 0.00 0.00 0.00 70 1019.7
20260502121534 40 287 4.3 6.1 0.00 0.00 0.00 71 1019.6
20260502121018 40 284 3.5 5.2 0.00 0.00 0.00 72 1019.6
20260502120519 40 287 3.5 5.2 0.00 0.00 0.00 72 1019.7
20260502115517 39 295 3.5 5.2 0.00 0.00 0.00 72 1019.7
20260502115017 39 298 3.5 6.1 0.00 0.00 0.00 71 1019.6
20260502114516 39 303 3.5 6.1 0.00 0.00 0.00 73 1019.6
20260502114017 38 288 3.5 7.0 0.00 0.00 0.00 74 1019.6
20260502113517 38 300 3.5 7.0 0.00 0.00 0.00 73 1019.6
20260502113116 38 298 2.6 5.2 0.00 0.00 0.00 75 1019.6
20260502112514 38 294 2.6 5.2 0.00 0.00 0.00 76 1019.5
20260502112016 38 276 2.6 6.1 0.00 0.00 0.00 78 1019.6
20260502111514 37 284 2.6 6.1 0.00 0.00 0.00 75 1019.5
20260502111013 37 280 1.7 5.2 0.00 0.00 0.00 74 1019.4
20260502110514 37 293 1.7 4.3 0.00 0.00 0.00 75 1019.5
20260502110016 37 290 2.6 4.3 0.00 0.00 0.00 75 1019.5
20260502105514 37 280 2.6 4.3 0.00 0.00 0.00 75 1019.5
20260502105016 37 287 2.6 3.5 0.00 0.00 0.00 75 1019.5
20260502104512 37 293 1.7 4.3 0.00 0.00 0.00 74 1019.5
20260502104012 37 294 1.7 4.3 0.00 0.00 0.00 74 1019.5
20260502103512 37 285 1.7 3.5 0.00 0.00 0.00 74 1019.5
20260502103012 37 290 1.7 3.5 0.00 0.00 0.00 73 1019.5
20260502102511 37 302 1.7 3.5 0.00 0.00 0.00 73 1019.5
20260502102012 37 287 1.7 3.5 0.00 0.00 0.00 73 1019.6
20260502101513 37 315 1.7 5.2 0.00 0.00 0.00 72 1019.5
20260502101011 37 291 1.7 6.1 0.00 0.00 0.00 73 1019.5
20260502100511 37 282 2.6 6.1 0.00 0.00 0.00 73 1019.5
20260502091506 38 295 2.6 5.2 0.00 0.00 0.00 72 1019.3
20260502091003 38 290 3.5 5.2 0.00 0.00 0.00 72 1019.4
20260502090503 38 290 2.6 5.2 0.00 0.00 0.00 73 1019.3
20260502071050 39 288 1.7 4.3 0.00 0.00 0.00 66 1019.6
20260502070550 39 284 2.6 4.3 0.00 0.00 0.00 68 1019.7
20260502070049 39 293 1.7 3.5 0.00 0.00 0.00 68 1019.7
20260502065548 39 290 1.7 3.5 0.00 0.00 0.00 68 1019.7
20260502065047 39 284 2.6 3.5 0.00 0.00 0.00 68 1019.7
20260502064546 39 291 0.9 2.6 0.00 0.00 0.00 68 1019.8
20260502064044 39 284 0.0 2.6 0.00 0.00 0.00 65 1019.8
20260502063543 39 281 0.9 2.6 0.00 0.00 0.00 64 1019.9
20260502063047 39 271 0.0 2.6 0.00 0.00 0.00 64 1019.9
20260502062543 39 269 0.9 1.7 0.00 0.00 0.00 63 1019.9
20260502062042 39 276 0.0 2.6 0.00 0.00 0.00 64 1019.8
20260502061542 40 266 0.9 2.6 0.00 0.00 0.00 63 1019.8
20260502061040 40 280 0.9 2.6 0.00 0.00 0.00 63 1019.8
20260502060540 40 277 0.0 1.7 0.00 0.00 0.00 62 1019.9
20260502060038 40 276 0.0 1.7 0.00 0.00 0.00 61 1019.8
20260502055539 40 261 0.9 2.6 0.00 0.00 0.00 61 1019.9
20260502055037 41 274 0.0 2.6 0.00 0.00 0.00 61 1019.8
20260502054541 41 270 0.9 2.6 0.00 0.00 0.00 61 1019.9
20260502054036 41 276 0.9 3.5 0.00 0.00 0.00 61 1019.8
20260502053532 42 266 0.9 4.3 0.00 0.00 0.00 61 1019.9
20260502053036 42 280 0.9 4.3 0.00 0.00 0.00 61 1019.9
20260502052530 42 281 2.6 4.3 0.00 0.00 0.00 58 1020.0
20260502052031 43 292 2.6 4.3 0.00 0.00 0.00 57 1020.0
20260502051527 43 271 1.7 4.3 0.00 0.00 0.00 55 1020.0
20260502051026 43 290 2.6 5.2 0.00 0.00 0.00 53 1020.0
20260502050527 43 290 2.6 5.2 0.00 0.00 0.00 53 1020.0
20260502050031 43 285 2.6 6.1 0.00 0.00 0.00 52 1020.0
20260502045525 43 288 3.5 6.1 0.00 0.00 0.00 52 1020.0
20260502045025 43 290 3.5 4.3 0.00 0.00 0.00 54 1020.0
20260502044525 43 287 1.7 4.3 0.00 0.00 0.00 56 1019.9
20260502044023 43 288 1.7 3.5 0.00 0.00 0.00 57 1019.9
20260502043523 43 298 2.6 4.3 0.00 0.00 0.00 55 1019.9
20260502043023 43 290 2.6 4.3 0.00 0.00 0.00 56 1019.9
20260502042524 43 284 1.7 3.5 0.00 0.00 0.00 59 1019.9
20260502042025 43 280 0.9 3.5 0.00 0.00 0.00 59 1019.9
20260502041523 43 264 0.0 4.3 0.00 0.00 0.00 58 1019.9
20260502041024 43 298 2.6 4.3 0.00 0.00 0.00 59 1020.0
20260502040525 43 297 2.6 4.3 0.00 0.00 0.00 57 1020.0
20260502040023 43 290 0.9 2.6 0.00 0.00 0.00 58 1019.9
20260502035523 43 281 0.0 1.7 0.00 0.00 0.00 60 1019.9
20260502035023 43 285 0.0 1.7 0.00 0.00 0.00 59 1019.9
20260502034523 43 273 0.0 1.7 0.00 0.00 0.00 58 1019.9
20260502034023 44 283 0.0 0.9 0.00 0.00 0.00 55 1019.9
20260502033522 44 280 0.0 0.9 0.00 0.00 0.00 55 1019.9
20260502033024 44 281 0.0 1.7 0.00 0.00 0.00 54 1019.9
20260502032520 44 271 0.0 1.7 0.00 0.00 0.00 55 1019.9
20260502032020 44 269 0.0 1.7 0.00 0.00 0.00 55 1019.8
20260502031522 44 281 0.0 1.7 0.00 0.00 0.00 54 1019.9
20260502031021 44 277 0.0 0.9 0.00 0.00 0.00 52 1019.9
20260502030521 44 276 0.0 0.9 0.00 0.00 0.00 51 1019.9
20260502030021 44 262 0.0 0.9 0.00 0.00 0.00 51 1019.9
20260502025520 44 260 0.0 0.9 0.00 0.00 0.00 50 1019.9
20260502025019 44 264 0.9 0.9 0.00 0.00 0.00 51 1019.9
20260502024520 44 269 0.0 0.0 0.00 0.00 0.00 52 1019.9
20260502024020 44 263 0.0 0.9 0.00 0.00 0.00 53 1019.9
20260502023519 45 257 0.0 0.9 0.00 0.00 0.00 54 1019.9
20260502023019 45 281 0.0 0.9 0.00 0.00 0.00 56 1019.9
20260502022518 45 281 0.0 0.9 0.00 0.00 0.00 54 1019.9
20260502022020 45 283 0.0 1.7 0.00 0.00 0.00 52 1019.9
20260502021518 45 276 0.0 1.7 0.00 0.00 0.00 51 1019.8
20260502021017 45 280 0.9 2.6 0.00 0.00 0.00 53 1019.8
20260502020517 45 285 1.7 2.6 0.00 0.00 0.00 53 1019.8
20260502020017 45 291 0.0 1.7 0.00 0.00 0.00 53 1019.6
20260502015520 45 278 0.0 1.7 0.00 0.00 0.00 49 1019.6
20260502015017 45 273 0.0 1.7 0.00 0.00 0.00 46 1019.6
20260502014526 46 276 0.0 0.9 0.00 0.00 0.00 45 1019.4
20260502014017 46 296 0.0 0.9 0.00 0.00 0.00 43 1019.5
20260502013519 47 297 0.0 0.9 0.00 0.00 0.00 42 1019.5
20260502013017 47 297 0.0 1.7 0.00 0.00 0.00 42 1019.5
20260502012516 47 303 0.0 1.7 0.00 0.00 0.00 41 1019.4
20260502012018 48 309 0.0 1.7 0.00 0.00 0.00 41 1019.4
20260502011516 48 294 0.0 1.7 0.00 0.00 0.00 41 1019.4
20260502011016 49 325 0.0 0.9 0.00 0.00 0.00 37 1019.3
20260502010515 50 326 0.0 0.9 0.00 0.00 0.00 37 1019.3
20260502010015 50 323 0.0 2.6 0.00 0.00 0.00 36 1019.3
20260502005515 50 299 0.0 2.6 0.00 0.00 0.00 36 1019.3
20260502005017 51 311 0.0 1.7 0.00 0.00 0.00 35 1019.3
20260502004530 51 320 0.0 0.9 0.00 0.00 0.00 36 1019.2
20260502004013 52 32 0.0 1.7 0.00 0.00 0.00 35 1019.2
20260502003513 51 4 0.0 3.5 0.00 0.00 0.00 36 1019.2
20260502003014 51 25 0.9 4.3 0.00 0.00 0.00 35 1019.2
20260502002513 51 27 1.7 5.2 0.00 0.00 0.00 35 1019.3
20260502002012 51 29 2.6 5.2 0.00 0.00 0.00 34 1019.3
20260502001513 52 56 0.0 2.6 0.00 0.00 0.00 35 1019.3
20260502001012 52 18 0.0 2.6 0.00 0.00 0.00 35 1019.3
20260502000510 53 345 0.9 3.5 0.00 0.00 0.00 34 1019.3
20260502000010 52 64 0.0 6.1 0.00 0.00 0.00 34 1019.3
20260501235510 53 349 1.7 6.1 0.00 0.00 0.00 34 1019.3
20260501235010 53 12 0.0 5.2 0.00 0.00 0.00 36 1019.3
20260501234510 52 287 0.0 6.1 0.00 0.00 0.00 35 1019.4
20260501234010 52 284 1.7 8.7 0.00 0.00 0.00 35 1019.3
20260501233509 52 280 4.3 8.7 0.00 0.00 0.00 34 1019.3
20260501233010 52 326 1.7 9.6 0.00 0.00 0.00 36 1019.3
20260501232509 52 277 1.7 7.0 0.00 0.00 0.00 36 1019.3
20260501232009 52 324 2.6 8.7 0.00 0.00 0.00 34 1019.3
20260501231507 52 297 2.6 8.7 0.00 0.00 0.00 35 1019.4
20260501231007 52 343 2.6 8.7 0.00 0.00 0.00 36 1019.4
20260501230507 52 51 2.6 7.0 0.00 0.00 0.00 34 1019.5
20260501230006 52 347 2.6 11.3 0.00 0.00 0.00 36 1019.4
20260501225505 51 46 6.1 11.3 0.00 0.00 0.00 37 1019.3
20260501225005 50 85 0.9 5.2 0.00 0.00 0.00 36 1019.4
20260501224505 50 92 4.3 7.0 0.00 0.00 0.00 36 1019.4
20260501224003 50 86 4.3 7.0 0.00 0.00 0.00 36 1019.4
20260501223504 50 64 3.5 9.6 0.00 0.00 0.00 36 1019.4
20260501223007 50 91 6.1 9.6 0.00 0.00 0.00 35 1019.5
20260501222503 50 55 3.5 8.7 0.00 0.00 0.00 37 1019.5
20260501222003 50 62 5.2 7.0 0.00 0.00 0.00 35 1019.5
20260501221503 50 73 5.2 8.7 0.00 0.00 0.00 35 1019.6
20260501221002 51 47 6.1 8.7 0.00 0.00 0.00 35 1019.6
20260501220503 51 358 2.6 7.0 0.00 0.00 0.00 35 1019.5
20260501220005 51 349 2.6 7.0 0.00 0.00 0.00 36 1019.6
20260501215503 50 338 1.7 8.7 0.00 0.00 0.00 38 1019.6
20260501215002 49 51 4.3 12.2 0.00 0.00 0.00 37 1019.6
20260501214502 50 65 6.1 12.2 0.00 0.00 0.00 37 1019.6
20260501214001 51 67 3.5 7.8 0.00 0.00 0.00 39 1019.5
20260501213501 50 61 4.3 8.7 0.00 0.00 0.00 38 1019.6
20260501213001 49 99 4.3 9.6 0.00 0.00 0.00 39 1019.6
20260501212501 49 41 7.0 10.4 0.00 0.00 0.00 38 1019.6
20260501212001 49 58 2.6 8.7 0.00 0.00 0.00 39 1019.7
20260501211501 49 58 4.3 8.7 0.00 0.00 0.00 39 1019.7
20260501211103 49 22 3.5 11.3 0.00 0.00 0.00 39 1019.8
20260501210600 49 64 3.5 13.9 0.00 0.00 0.00 38 1019.8
20260501210100 49 74 3.5 13.9 0.00 0.00 0.00 38 1019.8
20260501205600 50 37 3.5 8.7 0.00 0.00 0.00 38 1019.8
20260501205059 49 250 1.7 8.7 0.00 0.00 0.00 39 1019.8
20260501204559 49 88 2.6 13.0 0.00 0.00 0.00 38 1019.9
20260501204059 49 74 8.7 15.6 0.00 0.00 0.00 38 1019.9
20260501203559 49 70 8.7 15.6 0.00 0.00 0.00 39 1020.0
20260501203101 49 70 9.6 13.9 0.00 0.00 0.00 38 1020.0
20260501202559 50 81 7.0 9.6 0.00 0.00 0.00 37 1019.9
20260501202100 51 46 4.3 9.6 0.00 0.00 0.00 37 1020.0
20260501201558 51 355 1.7 8.7 0.00 0.00 0.00 38 1020.0
20260501201056 50 294 2.6 9.6 0.00 0.00 0.00 38 1020.1
20260501200555 49 4 3.5 9.6 0.00 0.00 0.00 39 1020.1
20260501200056 49 37 4.3 8.7 0.00 0.00 0.00 39 1020.1
20260501195555 49 75 6.1 10.4 0.00 0.00 0.00 38 1020.2
20260501195056 50 339 5.2 11.3 0.00 0.00 0.00 38 1020.3